Location: Newark
(46.4551°N, 12.7452°E)
Time: 00:19:19
(UTC+00:00)

N. Korean satellite - Visible Passes

Search period start: 06 December 2019 00:00
Search period end: 16 December 2019 00:00
Orbit: 456 x 506 km, 97.2° (Epoch: 05 December)

Date Brightness Start Highest point End Pass type
(mag) Time Alt. Az. Time Alt. Az. Time Alt. Az.
06 Dec 6.4 05:10:04 10° NNE 05:13:40 87° WNW 05:17:11 10° SSW visible
06 Dec 10.0 17:23:10 10° WSW 17:24:56 13° W 17:26:42 10° WNW visible
07 Dec 7.8 04:44:45 10° NNE 04:48:12 43° E 04:51:34 10° S visible
07 Dec 9.2 16:56:14 10° SSW 16:59:18 24° W 17:02:23 10° NW visible
08 Dec 9.1 04:19:48 10° NE 04:22:38 22° E 04:25:25 10° SSE visible
08 Dec 7.5 05:52:59 10° N 05:56:00 26° WNW 05:58:59 10° SW visible
08 Dec 7.8 16:30:10 10° S 16:33:45 47° W 16:37:21 10° NNW visible
09 Dec 10.0 03:55:48 10° ENE 03:56:57 11° E 03:58:08 10° ESE visible
09 Dec 6.6 05:27:14 10° N 05:30:42 51° WNW 05:34:06 10° SSW visible
09 Dec 6.6 16:04:35 10° SSE 16:08:18 83° ENE 16:12:01 10° N visible
10 Dec 6.7 05:01:44 10° NNE 05:05:18 74° ESE 05:08:47 10° S visible
10 Dec 9.9 17:14:11 10° SW 17:16:31 16° W 17:18:49 10° NW visible
11 Dec 8.2 04:36:31 10° NNE 04:39:47 34° E 04:42:59 10° SSE visible
11 Dec 8.8 16:47:37 10° SSW 16:50:53 29° W 16:54:11 10° NNW visible
12 Dec 9.5 04:11:44 10° NE 04:14:11 18° E 04:16:36 10° SE visible
12 Dec 7.2 05:44:29 10° N 05:47:41 32° WNW 05:50:48 10° SW visible
12 Dec 7.3 16:21:43 10° S 16:25:23 60° W 16:29:02 10° NNW visible
13 Dec 6.4 05:18:49 10° N 05:22:20 66° WNW 05:25:46 10° SSW visible
13 Dec 6.6 15:56:17 10° SSE 15:59:57 66° ENE 16:03:36 10° N visible
14 Dec 7.1 04:53:24 10° NNE 04:56:53 57° E 05:00:17 10° S visible
14 Dec 9.6 17:05:21 10° SW 17:08:04 19° W 17:10:46 10° NW visible
15 Dec 8.7 04:28:17 10° NE 04:31:20 27° E 04:34:20 10° SSE visible
15 Dec 7.8 06:01:55 10° NNW 06:04:35 21° WNW 06:07:13 10° WSW visible
15 Dec 8.4 16:39:03 10° SSW 16:42:29 36° W 16:45:54 10° NNW visible
